This is the latest recevied weather packets stored in our database for station/object NK2J. If no packets are shown the sender has not sent any weather packets the latest 10 day(s).
| Time | Temp. | Humidity | Pressure | Rain* | Wind** | Luminosity | Snow |
|---|---|---|---|---|---|---|---|
| 1777735688 | 26.67° C | 30% | 1016.3 hPa | 0 mm | - | 372 W/m² | - |
| 1777735385 | 26.67° C | 31% | 1016.2 hPa | 0 mm | - | 356 W/m² | - |
| 1777735083 | 26.11° C | 31% | 1016.2 hPa | 0 mm | - | 340 W/m² | - |
| 1777734779 | 26.11° C | 31% | 1016.2 hPa | 0 mm | - | 326 W/m² | - |
| 1777734477 | 25.56° C | 32% | 1016.1 hPa | 0 mm | - | 312 W/m² | - |
| 1777734173 | 26.11° C | 32% | 1015.8 hPa | 0 mm | - | 297 W/m² | - |
| 1777733870 | 25.56° C | 32% | 1015.9 hPa | 0 mm | - | 278 W/m² | - |
| 1777733566 | 25.56° C | 32% | 1015.6 hPa | 0 mm | - | 265 W/m² | - |
| 1777733262 | 25.56° C | 32% | 1015.7 hPa | 0 mm | - | 248 W/m² | - |
| 1777732960 | 25.56° C | 33% | 1015.7 hPa | 0 mm | - | 231 W/m² | - |
| 1777732655 | 25° C | 33% | 1015.6 hPa | 0 mm | - | 216 W/m² | - |
| 1777732353 | 25° C | 33% | 1015.6 hPa | 0 mm | - | 201 W/m² | - |
| 1777732051 | 25° C | 33% | 1015.6 hPa | 0 mm | - | 177 W/m² | - |
| 1777731747 | 25° C | 33% | 1015.7 hPa | 0 mm | - | 169 W/m² | - |
| 1777731444 | 25° C | 34% | 1015.6 hPa | 0 mm | - | 138 W/m² | - |
| 1777731143 | 24.44° C | 35% | 1015.5 hPa | 0 mm | - | 116 W/m² | - |
| 1777730840 | 23.89° C | 35% | 1015.5 hPa | 0 mm | - | 65 W/m² | - |
| 1777730538 | 23.89° C | 35% | 1015.6 hPa | 0 mm | - | 68 W/m² | - |
| 1777730233 | 22.78° C | 35% | 1015.5 hPa | 0 mm | - | 72 W/m² | - |
| 1777729930 | 22.78° C | 37% | 1015.5 hPa | 0 mm | - | 68 W/m² | - |
| 1777729626 | 22.78° C | 35% | 1015.3 hPa | 0 mm | - | 42 W/m² | - |
| 1777729324 | 21.11° C | 38% | 1015.1 hPa | 0 mm | - | 34 W/m² | - |
| 1777729020 | 20.56° C | 39% | 1015.1 hPa | 0 mm | - | 33 W/m² | - |
| 1777728716 | 20.56° C | 40% | 1015 hPa | 0 mm | - | 30 W/m² | - |
| 1777728413 | 20.56° C | 39% | 1014.8 hPa | 0 mm | - | 28 W/m² | - |
* Rain latest hour (hover to see other rain measurements)
** Current wind speed in m/s (hover to see current wind gust speed)